Location: Bothwell
(42.3833°S, 147.0000°E)
Time: 09:35:42
(UTC+11:00)

KKS-1 - Pass Details

Date: 30 September 2023
Orbit: 629 x 643 km, 98.2° (Epoch: 04 December)

Event Time Altitude Azimuth Distance (km) Brightness Sun altitude
Exits shadow 21:56:24 13° 182° (S) 1,864 ? -36.6°
Drops below altitude 10° 21:56:52 10° 183° (S) 2,047 ? -36.7°
Sets 21:59:07 0° 188° (S) 2,963 ? -36.9°
